TimeEDT,TemperatureF,Dew PointF,Humidity,Sea Level PressureIn,VisibilityMPH,Wind Direction,Wind SpeedMPH,Gust SpeedMPH,PrecipitationIn,Events,Conditions,WindDirDegrees,DateUTC
12:15 AM,76.1,75.4,98,30.15,10.0,Calm,Calm,-,N/A,,Mostly Cloudy,0,2013-08-18 04:15:00
12:35 AM,75.4,75.0,99,30.16,10.0,Calm,Calm,-,N/A,,Overcast,0,2013-08-18 04:35:00
12:55 AM,75.0,74.3,98,30.15,10.0,Calm,Calm,-,N/A,,Overcast,0,2013-08-18 04:55:00
1:15 AM,74.5,74.1,99,30.15,10.0,Calm,Calm,-,N/A,,Mostly Cloudy,0,2013-08-18 05:15:00
1:35 AM,74.3,73.8,98,30.15,10.0,Calm,Calm,-,N/A,,Overcast,0,2013-08-18 05:35:00
1:55 AM,73.9,73.6,99,30.14,10.0,Calm,Calm,-,N/A,,Overcast,0,2013-08-18 05:55:00
2:15 AM,73.8,73.8,100,30.14,10.0,Calm,Calm,-,N/A,,Overcast,0,2013-08-18 06:15:00
2:35 AM,73.8,73.6,99,30.12,10.0,Calm,Calm,-,N/A,,Mostly Cloudy,0,2013-08-18 06:35:00
2:55 AM,73.2,73.2,100,30.12,10.0,Calm,Calm,-,N/A,,Mostly Cloudy,0,2013-08-18 06:55:00
3:15 AM,73.9,73.9,100,30.11,10.0,Calm,Calm,-,N/A,,Overcast,0,2013-08-18 07:15:00
3:35 AM,73.4,73.4,100,30.12,10.0,Calm,Calm,-,N/A,,Overcast,0,2013-08-18 07:35:00
3:55 AM,73.4,73.4,100,30.12,10.0,Calm,Calm,-,N/A,,Overcast,0,2013-08-18 07:55:00
4:15 AM,73.6,73.6,100,30.12,10.0,Calm,Calm,-,N/A,,Overcast,0,2013-08-18 08:15:00
4:35 AM,73.8,73.8,100,30.13,10.0,ESE,3.5,-,N/A,,Mostly Cloudy,110,2013-08-18 08:35:00
4:55 AM,73.8,73.8,100,30.14,10.0,Calm,Calm,-,N/A,,Overcast,0,2013-08-18 08:55:00
5:15 AM,73.9,73.9,100,30.14,10.0,East,3.5,-,N/A,,Overcast,90,2013-08-18 09:15:00
5:35 AM,74.3,74.3,100,30.15,10.0,ESE,3.5,-,N/A,,Overcast,110,2013-08-18 09:35:00
5:55 AM,74.3,74.3,100,30.15,10.0,ESE,4.6,-,N/A,,Overcast,110,2013-08-18 09:55:00
6:15 AM,74.3,73.9,99,30.15,10.0,ESE,3.5,-,N/A,,Overcast,110,2013-08-18 10:15:00
6:35 AM,74.3,73.9,99,30.15,10.0,ESE,4.6,-,N/A,,Overcast,110,2013-08-18 10:35:00
6:55 AM,74.5,74.3,99,30.15,10.0,ESE,3.5,-,N/A,,Overcast,110,2013-08-18 10:55:00
7:15 AM,74.5,74.3,99,30.16,10.0,ESE,4.6,-,N/A,,Overcast,110,2013-08-18 11:15:00
7:35 AM,74.7,74.3,99,30.17,10.0,Calm,Calm,-,N/A,,Overcast,0,2013-08-18 11:35:00
7:55 AM,75.2,74.3,97,30.18,10.0,ESE,3.5,-,N/A,,Overcast,110,2013-08-18 11:55:00
8:15 AM,75.4,74.5,97,30.18,10.0,SE,4.6,-,N/A,,Overcast,130,2013-08-18 12:15:00
8:35 AM,76.1,74.7,95,30.19,10.0,ESE,4.6,-,N/A,,Overcast,120,2013-08-18 12:35:00
8:55 AM,76.5,74.8,95,30.19,10.0,SE,3.5,-,N/A,,Overcast,130,2013-08-18 12:55:00
9:15 AM,77.2,75.4,94,30.18,10.0,Calm,Calm,-,N/A,,Overcast,0,2013-08-18 13:15:00
9:35 AM,78.6,76.1,92,30.18,10.0,SE,4.6,-,N/A,,Overcast,140,2013-08-18 13:35:00
9:55 AM,79.5,75.9,89,30.18,10.0,SE,5.8,-,N/A,,Overcast,140,2013-08-18 13:55:00
10:15 AM,81.0,76.6,87,30.19,10.0,Calm,Calm,-,N/A,,Overcast,0,2013-08-18 14:15:00
10:35 AM,81.9,76.8,85,30.19,10.0,ESE,4.6,-,N/A,,Mostly Cloudy,120,2013-08-18 14:35:00
10:55 AM,82.8,77.4,84,30.19,10.0,East,5.8,-,N/A,,Mostly Cloudy,90,2013-08-18 14:55:00
11:15 AM,84.6,77.0,78,30.19,10.0,ESE,5.8,-,N/A,,Scattered Clouds,120,2013-08-18 15:15:00
11:35 AM,86.2,77.2,74,30.19,10.0,SSE,5.8,-,N/A,,Scattered Clouds,150,2013-08-18 15:35:00
11:55 AM,86.0,77.5,76,30.19,10.0,SSE,5.8,-,N/A,,Mostly Cloudy,150,2013-08-18 15:55:00
12:15 PM,86.7,77.5,74,30.18,10.0,SSE,3.5,-,N/A,,Mostly Cloudy,150,2013-08-18 16:15:00
12:35 PM,86.7,77.2,73,30.18,10.0,SE,4.6,-,N/A,,Mostly Cloudy,140,2013-08-18 16:35:00
12:55 PM,87.4,77.7,73,30.17,10.0,ESE,3.5,-,N/A,,Mostly Cloudy,110,2013-08-18 16:55:00
1:15 PM,88.5,77.4,69,30.16,10.0,East,4.6,-,N/A,,Overcast,100,2013-08-18 17:15:00
1:35 PM,89.6,77.5,67,30.15,10.0,ESE,5.8,-,N/A,,Mostly Cloudy,110,2013-08-18 17:35:00
1:55 PM,88.7,77.2,69,30.15,10.0,SE,5.8,-,N/A,,Mostly Cloudy,140,2013-08-18 17:55:00
2:15 PM,88.5,77.4,69,30.14,10.0,SE,5.8,-,N/A,,Overcast,130,2013-08-18 18:15:00
2:35 PM,89.4,77.2,67,30.15,10.0,SE,4.6,-,N/A,,Mostly Cloudy,140,2013-08-18 18:35:00
2:55 PM,91.4,77.4,63,30.13,10.0,SE,3.5,-,N/A,,Scattered Clouds,130,2013-08-18 18:55:00
3:15 PM,89.6,77.0,66,30.12,10.0,Calm,Calm,-,N/A,,Mostly Cloudy,0,2013-08-18 19:15:00
3:35 PM,92.3,77.5,62,30.11,10.0,WSW,4.6,-,N/A,,Scattered Clouds,250,2013-08-18 19:35:00
3:55 PM,91.4,77.4,63,30.10,10.0,SSE,3.5,-,N/A,,Scattered Clouds,150,2013-08-18 19:55:00
4:15 PM,90.1,78.1,68,30.10,10.0,ESE,4.6,-,N/A,,Clear,120,2013-08-18 20:15:00
4:35 PM,89.6,77.7,68,30.09,10.0,Calm,Calm,-,N/A,,Clear,0,2013-08-18 20:35:00
4:55 PM,89.6,77.4,67,30.09,10.0,Calm,Calm,-,N/A,,Clear,0,2013-08-18 20:55:00
5:15 PM,89.1,78.6,71,30.10,10.0,NNW,3.5,-,N/A,Thunderstorm,Scattered Clouds,340,2013-08-18 21:15:00
5:35 PM,86.4,79.9,81,30.10,10.0,Calm,Calm,-,N/A,,Scattered Clouds,0,2013-08-18 21:35:00
5:55 PM,85.3,80.1,84,30.14,10.0,SE,9.2,-,N/A,Rain,Rain,130,2013-08-18 21:55:00
6:15 PM,77.2,75.7,95,30.15,2.0,ESE,9.2,18.4,N/A,Rain-Thunderstorm,Heavy Thunderstorms and Rain,120,2013-08-18 22:15:00
6:35 PM,77.0,75.9,96,30.15,10.0,ESE,5.8,-,N/A,Rain,Rain,110,2013-08-18 22:35:00
6:55 PM,76.5,75.6,97,30.14,7.0,Calm,Calm,-,N/A,Rain,Light Rain,0,2013-08-18 22:55:00
7:15 PM,77.2,75.9,96,30.15,10.0,Calm,Calm,-,N/A,,Mostly Cloudy,0,2013-08-18 23:15:00
7:35 PM,77.2,76.8,99,30.15,10.0,SSE,4.6,-,N/A,Rain,Light Rain,150,2013-08-18 23:35:00
7:55 PM,77.2,76.6,98,30.15,3.0,Calm,Calm,-,N/A,Rain,Rain,0,2013-08-18 23:55:00
8:15 PM,77.2,77.0,99,30.15,7.0,Calm,Calm,-,N/A,Rain,Rain,0,2013-08-19 00:15:00
8:35 PM,77.0,76.3,98,30.15,10.0,ESE,3.5,-,N/A,Rain,Light Rain,120,2013-08-19 00:35:00
8:55 PM,77.0,76.3,98,30.15,10.0,Calm,Calm,-,N/A,Rain,Light Rain,0,2013-08-19 00:55:00
9:15 PM,77.0,76.3,98,30.16,10.0,Calm,Calm,-,N/A,,Light Drizzle,0,2013-08-19 01:15:00
9:35 PM,77.0,76.3,98,30.16,10.0,Calm,Calm,-,N/A,Thunderstorm,Overcast,0,2013-08-19 01:35:00
9:55 PM,76.8,76.5,99,30.18,10.0,SSE,4.6,-,N/A,Thunderstorm,Overcast,150,2013-08-19 01:55:00
10:15 PM,76.6,76.3,99,30.17,7.0,Calm,Calm,-,N/A,Rain-Thunderstorm,Rain,0,2013-08-19 02:15:00
10:35 PM,76.5,76.1,99,30.17,10.0,East,3.5,-,N/A,Rain-Thunderstorm,Light Thunderstorms and Rain,100,2013-08-19 02:35:00
10:55 PM,76.3,75.6,98,30.18,10.0,Calm,Calm,-,N/A,Rain,Rain,0,2013-08-19 02:55:00
11:15 PM,76.1,75.6,98,30.19,3.0,Calm,Calm,-,N/A,Rain,Heavy Rain,0,2013-08-19 03:15:00
11:35 PM,75.6,75.4,99,30.18,4.0,Calm,Calm,-,N/A,Rain,Rain,0,2013-08-19 03:35:00
11:55 PM,75.4,75.2,99,30.17,3.0,Calm,Calm,-,N/A,Rain,Light Rain,0,2013-08-19 03:55:00